Temp
6 6 6 6 6 6 6 6 6 6 6 6 6 6 6 5 5 5 4 4 4 4 4 4 4 4 4 4 4 4 4 4 4 4 3 3 3 3 3 4 4 3
6 6 6 6 6 6 6 6 6 6 6 6 6 6 6 6 6 5 5 5 4 4 4 4 4 4 4 4 4 4 4 4 4 4 3 3 3 3 3 3 3 3
6 6 6 5 6 6 6 6 6 6 6 6 6 6 6 6 6 5 5 5 5 5 4 4 4 4 4 4 4 4 4 3 3 3 3 3 3 3 3 3 3 3
6 5 5 6 6 6 6 6 6 6 6 6 6 6 6 6 5 5 5 5 5 5 5 5 4 4 4 4 4 4 3 3 3 3 3 3 3 3 3 3 3 3
5 5 5 5 6 6 6 6 6 6 6 6 6 5 5 5 5 5 5 5 5 5 5 5 4 4 4 4 4 4 4 3 3 3 3 3 3 3 3 3 3 3
5 5 5 5 5 5 5 5 5 5 5 5 5 5 5 5 5 5 5 5 5 5 5 5 5 5 5 4 4 4 4 4 3 3 3 3 3 3 3 3 3 3
5 5 5 5 5 5 5 5 5 5 5 5 5 5 5 5 5 5 5 5 5 5 5 5 5 5 5 5 5 5 4 4 3 3 3 3 3 3 3 3 3 3
5 5 5 5 5 5 5 5 5 5 5 5 5 5 5 5 5 5 5 5 5 5 5 5 5 5 5 5 5 5 4 4 3 3 3 3 3 3 3 3 3 3
5 5 5 5 5 5 5 5 5 5 5 5 5 5 5 5 5 5 5 5 5 5 5 5 5 5 5 5 5 5 4 4 4 3 3 3 3 3 3 3 3 3
4 4 5 5 5 5 5 5 5 5 5 5 5 5 5 5 5 5 5 4 4 4 5 5 5 5 5 5 5 5 4 4 4 3 3 3 3 3 3 3 3 3
4 4 4 4 4 4 4 5 5 5 5 5 5 5 5 5 5 5 4 4 4 4 4 4 5 5 5 5 5 5 4 4 4 4 3 3 3 3 3 3 3 3
4 4 4 4 4 4 4 4 4 4 4 4 4 4 4 4 4 4 4 4 4 4 4 4 4 4 5 5 5 5 5 4 4 4 3 3 3 2 2 3 3 3
4 4 4 4 4 4 4 4 4 4 4 4 4 4 4 4 4 4 4 4 4 4 4 4 4 4 4 4 4 4 4 4 4 4 3 3 3 2 2 3 3 2
3 3 3 3 3 3 3 3 3 3 3 4 4 4 4 4 4 4 4 4 4 4 4 4 4 4 4 4 4 4 4 4 4 4 3 3 3 2 2 2 2 2
3 3 3 3 3 3 3 3 3 3 3 3 3 3 3 3 3 3 3 3 3 3 3 3 3 4 4 4 4 4 4 4 4 4 3 3 2 2 2 2 2 2
2 2 2 2 2 2 2 2 2 2 2 2 2 3 3 3 3 3 3 3 3 3 3 3 3 3 3 4 4 4 4 4 4 4 3 3 2 2 2 2 2 2
1 1 1 1 1 1 1 1 1 2 2 2 2 2 2 2 2 2 2 2 2 2 2 2 2 2 3 3 3 3 4 4 4 4 4 3 2 2 2 2 2 2
1 1 1 1 1 1 1 1 1 1 1 1 1 1 1 1 1 1 1 1 1 1 1 2 2 2 2 2 2 2 3 3 4 4 4 3 2 2 2 2 2 2
0 0 0 -0 -0 -0 0 0 0 0 0 0 0 0 0 0 0 0 0 0 0 0 0 1 1 1 1 1 2 2 2 3 3 3 4 3 3 2 2 2 2 2
-0 -0 -0 -1 -1 -0 -0 -1 -1 -1 -0 -0 -1 -1 -1 -0 -0 -0 -0 -0 -0 -0 -0 -0 0 0 1 1 1 1 2 2 3 3 3 3 3 2 2 1 2 2
-1 -1 -1 -1 -1 -1 -1 -1 -1 -1 -1 -1 -1 -1 -1 -1 -1 -1 -1 -1 -1 -1 -1 -1 -0 -0 -0 0 1 1 1 2 2 2 2 3 3 2 1 1 1 1
-1 -1 -1 -1 -1 -1 -1 -1 -1 -1 -1 -1 -1 -1 -1 -1 -1 -1 -1 -1 -1 -1 -1 -1 -1 -1 -1 -0 -0 0 1 1 2 2 2 2 2 2 1 1 1 1
-1 -2 -2 -2 -1 -1 -1 -1 -1 -2 -2 -2 -2 -2 -2 -2 -2 -2 -2 -1 -1 -1 -1 -1 -1 -1 -1 -1 -1 -0 0 0 1 2 2 2 2 2 2 1 1 1
-2 -2 -2 -2 -2 -2 -2 -2 -2 -2 -2 -2 -2 -2 -2 -3 -3 -3 -2 -2 -2 -2 -2 -2 -2 -1 -1 -1 -1 -1 -0 -0 0 1 1 1 2 2 2 1 1 1
-2 -3 -3 -2 -2 -2 -3 -3 -3 -3 -3 -3 -3 -3 -3 -3 -4 -3 -3 -3 -3 -3 -3 -3 -2 -2 -2 -1 -1 -1 -1 -1 -0 -0 1 1 1 1 2 1 1 1
-3 -3 -3 -3 -3 -3 -3 -3 -4 -4 -4 -4 -4 -4 -4 -4 -5 -4 -4 -4 -4 -4 -4 -3 -3 -3 -3 -2 -2 -1 -1 -1 -1 -1 -0 0 1 1 1 1 1 0
Height
3150 3149 3148 3148 3147 3146 3145 3144 3144 3143 3142 3142 3141 3141 3140 3138 3137 3136 3135 3134 3134 3133 3132 3131 3131 3131 3129 3126 3125 3123 3122 3120 3119 3118 3117 3116 3116 3115 3115 3114 3115 3115
3148 3147 3147 3146 3145 3144 3143 3142 3142 3141 3140 3139 3139 3138 3137 3136 3135 3133 3132 3131 3131 3130 3129 3128 3128 3127 3125 3123 3122 3121 3119 3117 3115 3115 3115 3114 3112 3111 3110 3110 3110 3110
3146 3146 3145 3144 3143 3142 3141 3140 3139 3139 3138 3137 3136 3135 3135 3134 3133 3131 3130 3129 3128 3127 3126 3125 3124 3123 3121 3120 3119 3118 3117 3115 3113 3112 3111 3111 3110 3109 3107 3106 3105 3105
3144 3143 3142 3142 3141 3140 3139 3138 3137 3136 3136 3135 3134 3133 3132 3131 3130 3129 3128 3127 3126 3125 3123 3122 3121 3120 3118 3116 3115 3114 3113 3112 3111 3109 3108 3107 3107 3107 3105 3103 3102 3102
3142 3141 3140 3140 3139 3138 3137 3136 3135 3134 3133 3132 3131 3130 3130 3129 3128 3127 3126 3125 3124 3122 3120 3118 3117 3116 3115 3113 3111 3110 3109 3108 3108 3106 3105 3103 3103 3103 3102 3101 3100 3099
3140 3139 3139 3138 3137 3136 3135 3134 3133 3132 3131 3130 3129 3128 3127 3126 3125 3124 3123 3122 3121 3119 3117 3115 3113 3113 3111 3110 3108 3107 3105 3104 3103 3103 3101 3100 3099 3098 3099 3098 3097 3096
3138 3137 3137 3136 3135 3134 3133 3132 3131 3130 3129 3128 3127 3126 3125 3124 3123 3121 3120 3119 3117 3115 3113 3111 3110 3109 3108 3106 3105 3104 3103 3101 3100 3099 3098 3097 3095 3095 3095 3095 3093 3092
3136 3135 3134 3133 3132 3131 3131 3130 3128 3127 3126 3125 3124 3123 3122 3121 3120 3118 3117 3116 3114 3112 3110 3109 3108 3107 3105 3103 3102 3101 3100 3098 3097 3096 3095 3094 3092 3092 3091 3090 3089 3089
3134 3133 3132 3131 3130 3129 3128 3127 3126 3125 3123 3122 3121 3120 3119 3118 3116 3115 3114 3112 3110 3108 3108 3107 3105 3103 3102 3100 3099 3097 3096 3095 3094 3093 3092 3091 3089 3088 3088 3086 3085 3085
3132 3131 3130 3129 3128 3127 3126 3124 3123 3122 3120 3119 3118 3116 3115 3114 3113 3112 3110 3109 3107 3106 3105 3104 3102 3100 3098 3097 3095 3094 3093 3091 3090 3089 3089 3087 3086 3085 3084 3083 3081 3080
3130 3129 3127 3126 3125 3124 3123 3121 3120 3119 3117 3116 3114 3113 3112 3111 3109 3108 3107 3105 3104 3102 3101 3100 3098 3097 3095 3094 3092 3091 3089 3088 3087 3086 3085 3084 3082 3081 3081 3079 3078 3076
3127 3126 3125 3124 3123 3121 3120 3118 3117 3115 3114 3112 3111 3109 3108 3107 3106 3105 3104 3102 3100 3099 3097 3096 3094 3093 3091 3090 3089 3087 3086 3084 3083 3082 3081 3080 3079 3078 3077 3076 3074 3073
3124 3123 3122 3121 3120 3118 3117 3115 3114 3112 3111 3109 3108 3106 3105 3104 3103 3101 3100 3098 3097 3095 3094 3092 3091 3089 3087 3086 3085 3083 3082 3081 3079 3078 3077 3076 3076 3075 3074 3072 3071 3070
3121 3121 3119 3118 3117 3115 3114 3112 3111 3109 3108 3106 3105 3103 3102 3101 3099 3098 3096 3095 3093 3091 3090 3088 3087 3085 3083 3082 3081 3080 3078 3077 3076 3074 3073 3072 3072 3071 3070 3069 3068 3067
3119 3118 3117 3115 3114 3112 3111 3109 3108 3106 3105 3103 3102 3100 3099 3097 3096 3094 3093 3091 3089 3088 3086 3084 3083 3081 3079 3077 3076 3076 3075 3073 3072 3070 3069 3068 3068 3067 3066 3065 3064 3063
3116 3115 3114 3113 3111 3110 3108 3107 3105 3103 3102 3100 3099 3097 3096 3094 3092 3090 3089 3087 3086 3084 3082 3081 3079 3077 3075 3073 3071 3070 3070 3069 3068 3067 3065 3064 3063 3063 3062 3061 3060 3059
3114 3113 3112 3110 3109 3107 3106 3104 3103 3101 3099 3097 3096 3094 3092 3091 3089 3087 3085 3083 3081 3080 3078 3077 3075 3074 3072 3070 3068 3066 3065 3064 3064 3063 3061 3060 3059 3058 3058 3057 3057 3056
3112 3111 3110 3108 3107 3105 3104 3102 3100 3098 3097 3095 3093 3091 3089 3088 3086 3084 3082 3080 3078 3076 3075 3073 3072 3070 3069 3067 3065 3063 3061 3060 3059 3058 3057 3056 3054 3054 3053 3053 3052 3052
3110 3109 3109 3107 3105 3103 3101 3100 3098 3096 3094 3093 3091 3089 3087 3085 3083 3081 3079 3078 3076 3074 3072 3070 3068 3067 3066 3064 3062 3060 3058 3056 3055 3053 3052 3051 3050 3050 3049 3049 3048 3048
3109 3108 3107 3105 3103 3101 3099 3098 3096 3094 3092 3091 3089 3087 3085 3083 3081 3079 3077 3075 3073 3071 3069 3067 3065 3063 3062 3060 3059 3057 3055 3053 3051 3049 3048 3047 3046 3045 3045 3044 3044 3043
3107 3106 3104 3103 3101 3099 3097 3096 3094 3092 3090 3089 3087 3085 3083 3081 3078 3076 3074 3072 3071 3069 3067 3065 3063 3060 3058 3057 3055 3053 3052 3050 3048 3046 3044 3043 3041 3041 3040 3040 3039 3039
3106 3105 3103 3101 3099 3098 3096 3094 3092 3090 3088 3086 3085 3083 3081 3078 3076 3074 3072 3070 3068 3066 3064 3062 3060 3058 3056 3054 3052 3050 3048 3047 3045 3043 3041 3039 3037 3036 3036 3035 3035 3035
3105 3103 3102 3100 3098 3096 3094 3093 3091 3089 3087 3084 3082 3081 3078 3076 3074 3072 3069 3067 3065 3063 3061 3059 3057 3055 3053 3051 3049 3047 3045 3043 3042 3040 3037 3036 3034 3032 3031 3031 3030 3031
3103 3102 3101 3099 3097 3095 3094 3092 3090 3087 3085 3083 3081 3079 3076 3074 3072 3069 3067 3064 3062 3060 3058 3056 3054 3052 3050 3048 3046 3044 3041 3039 3038 3036 3034 3032 3031 3029 3027 3027 3026 3026
3102 3101 3100 3098 3096 3095 3093 3091 3089 3086 3084 3082 3080 3077 3075 3072 3070 3068 3065 3062 3060 3057 3055 3053 3051 3048 3046 3045 3043 3041 3039 3036 3034 3033 3031 3029 3028 3026 3024 3022 3022 3022
3102 3101 3099 3098 3096 3094 3092 3091 3089 3087 3084 3082 3079 3077 3074 3072 3069 3066 3063 3061 3058 3055 3053 3050 3048 3046 3043 3041 3039 3037 3036 3034 3031 3029 3028 3026 3025 3023 3021 3019 3018 3018
Wind_Speed
17 16 16 15 13 12 12 12 13 14 14 15 15 15 15 16 17 18 17 16 16 18 20 22 23 22 23 23 24 25 26 26 27 28 28 27 27 29 30 30 28 28
17 16 15 14 13 13 13 14 14 14 15 16 16 16 15 16 17 17 18 17 17 18 20 22 22 23 23 23 24 24 25 25 25 26 27 27 28 29 30 30 29 29
17 16 15 15 15 15 14 14 14 15 15 16 16 16 16 16 17 17 18 18 19 20 22 22 22 23 25 25 25 25 25 25 25 25 27 28 30 30 30 32 30 29
17 16 16 16 15 15 15 15 15 15 16 16 17 17 16 17 18 19 19 20 21 22 23 24 24 24 25 26 26 26 26 25 25 26 27 27 29 30 31 32 30 29
16 16 16 16 15 15 15 15 16 16 17 17 17 18 19 19 20 21 21 21 21 22 24 25 25 25 26 27 27 28 28 27 26 26 26 26 26 27 29 31 30 29
15 16 15 15 15 16 16 16 17 17 18 19 19 20 21 22 23 23 23 23 22 22 24 25 26 26 26 27 27 28 28 29 27 26 25 26 24 24 26 28 30 30
16 16 15 16 16 17 17 18 18 19 19 20 21 22 23 23 24 24 24 24 23 23 24 26 27 27 27 28 28 28 28 28 28 26 25 25 22 22 24 28 30 29
16 17 16 17 18 18 19 19 19 20 21 22 22 23 24 24 24 25 25 24 24 25 26 27 27 28 28 29 29 28 27 27 26 26 25 23 21 21 22 26 28 28
17 18 18 18 18 19 19 19 20 21 21 22 23 23 24 24 25 25 25 25 25 26 27 27 28 28 28 29 29 27 27 26 25 24 24 23 22 21 22 24 25 26
18 19 19 20 20 20 20 21 21 22 23 24 24 25 25 25 25 25 26 26 26 27 27 27 27 28 28 28 28 27 26 27 25 24 24 23 21 21 22 24 24 24
19 20 21 22 22 23 23 23 24 25 25 26 26 27 26 26 26 26 26 26 27 28 28 28 28 28 28 28 27 27 26 27 26 24 24 24 23 21 22 23 24 23
21 21 22 23 24 24 25 25 26 26 26 26 27 27 27 27 27 26 27 27 28 28 28 29 29 29 29 28 27 27 26 26 26 24 24 25 24 23 22 23 23 23
23 23 24 24 24 24 25 25 25 25 25 26 26 26 27 27 27 27 28 28 29 29 30 30 30 30 30 29 28 27 26 26 25 25 25 26 26 24 23 23 23 24
24 24 24 24 24 24 24 25 25 25 25 26 26 27 28 28 28 28 29 29 30 31 32 32 31 31 30 30 29 27 26 26 25 24 25 26 26 26 25 24 23 23
24 24 24 24 24 24 25 25 25 26 26 27 28 28 29 29 30 30 30 31 32 33 33 33 32 32 32 31 30 28 26 25 25 24 25 27 27 26 25 25 24 24
24 23 23 23 24 24 24 25 25 26 27 28 28 29 30 30 31 32 33 33 33 34 34 33 32 32 31 31 31 29 27 25 25 24 25 27 27 26 25 25 25 24
22 21 21 22 22 22 23 24 25 26 27 28 29 29 30 30 31 32 33 34 34 34 34 33 32 31 30 30 30 29 28 26 25 25 24 26 27 26 25 25 25 24
19 19 19 20 21 21 22 23 24 25 26 27 28 29 29 30 31 31 31 32 33 33 33 33 32 31 30 29 29 28 28 27 27 26 25 24 25 25 25 25 25 25
18 18 18 19 20 21 22 23 24 25 25 26 27 28 29 29 30 30 30 30 30 31 31 32 32 31 29 29 28 28 27 26 27 26 25 24 23 23 23 24 25 25
18 18 18 19 20 21 22 23 24 25 25 26 26 27 28 28 29 30 30 30 29 28 28 29 29 30 29 28 28 28 26 26 26 26 25 24 23 22 22 22 24 25
18 19 19 20 21 22 23 23 24 24 25 26 26 26 27 28 28 29 30 30 29 28 27 26 27 28 28 28 28 28 27 25 26 26 25 23 23 24 24 25 25 26
17 18 19 19 20 21 22 23 24 24 25 26 26 26 27 27 28 29 29 30 29 29 28 27 26 26 26 27 27 27 27 25 25 26 25 23 22 23 25 27 27 27
16 17 19 20 21 22 22 23 24 24 25 26 26 27 27 27 28 28 29 30 30 29 29 28 28 26 26 26 26 26 26 25 24 24 24 23 22 22 24 26 26 26
17 17 18 19 21 22 23 23 24 25 26 26 27 28 28 28 28 28 28 29 29 29 29 29 29 28 27 26 25 25 26 25 24 23 24 23 21 21 23 25 27 27
17 17 18 19 21 22 23 24 24 25 26 27 28 28 29 29 29 29 29 29 29 29 29 28 28 28 28 27 26 25 25 25 24 23 23 23 21 20 20 23 26 26
16 17 18 20 21 22 23 24 24 24 25 26 27 28 29 29 29 29 29 29 29 29 28 28 28 27 28 27 26 25 24 23 24 23 22 22 22 20 19 20 23 24
Wind_Direction
303 302 302 302 300 296 292 290 292 293 293 293 294 296 298 298 298 298 300 301 302 301 299 300 305 309 309 309 310 313 315 311 300 291 284 278 273 268 263 262 261 260
303 302 302 298 294 292 291 290 290 289 289 291 292 295 297 298 299 302 304 306 305 302 300 301 305 308 308 306 306 309 311 312 306 298 292 284 276 270 265 264 263 262
304 302 299 294 291 292 291 290 289 288 289 292 295 298 300 301 303 305 308 312 312 309 307 307 307 307 308 307 307 307 308 310 309 304 299 291 285 279 271 266 265 263
304 301 296 293 293 291 290 290 289 291 293 295 298 300 302 304 306 309 313 315 317 316 314 313 312 309 307 306 307 306 304 305 306 305 304 299 293 288 279 272 270 267
302 299 296 295 293 291 290 290 290 291 293 295 298 300 302 305 307 309 311 313 314 315 314 312 311 309 307 306 305 304 304 304 304 303 304 304 297 290 284 279 279 277
297 295 293 292 291 290 290 288 288 289 290 292 295 297 300 302 305 306 307 308 310 310 309 307 307 308 307 305 304 304 304 305 305 304 306 306 299 290 287 286 286 283
295 293 292 291 290 289 289 288 289 289 289 291 293 295 298 299 301 302 302 304 305 305 304 305 307 309 308 306 306 307 306 304 305 305 306 308 302 289 286 289 290 286
294 294 292 291 290 290 290 291 291 292 293 293 294 295 297 298 298 299 299 300 301 301 303 307 309 309 309 308 309 309 307 303 302 302 304 307 305 296 289 289 289 285
294 293 291 290 290 290 291 292 293 294 295 294 295 295 295 296 296 296 297 298 299 300 304 308 308 307 307 307 308 308 305 302 299 299 301 302 304 303 299 296 291 284
297 296 295 294 294 293 293 294 294 295 295 295 295 295 295 295 295 295 296 296 298 300 304 306 306 305 304 303 305 305 302 299 297 297 298 297 298 300 301 303 298 287
300 299 298 296 295 295 294 294 295 294 294 295 294 294 294 293 293 293 293 295 297 300 303 305 304 304 303 302 301 301 300 298 295 294 293 293 294 295 298 303 303 293
301 299 298 296 294 294 293 293 293 292 292 292 292 292 291 291 291 291 292 294 297 300 303 304 305 305 303 301 299 298 298 298 294 290 288 288 291 292 294 300 305 302
302 302 301 299 297 295 294 293 292 292 292 292 292 292 292 292 292 292 292 294 297 300 303 304 304 304 303 301 298 296 296 296 294 289 284 284 287 290 292 295 300 305
302 302 302 302 300 298 297 296 296 296 296 295 295 295 295 295 295 295 295 296 298 300 303 305 305 304 302 300 297 295 294 294 293 288 283 281 283 287 290 291 293 300
301 301 302 301 300 300 300 300 300 301 301 301 300 300 299 299 299 299 299 299 300 302 304 305 306 304 303 300 297 295 292 290 290 286 280 278 279 282 286 289 290 294
300 301 302 302 301 302 302 303 304 305 305 305 305 304 304 303 303 303 303 302 303 304 305 306 307 306 305 304 302 299 294 290 288 285 278 274 275 277 281 286 289 289
303 305 305 304 305 307 307 307 308 309 309 309 308 308 307 306 306 306 307 307 307 307 307 308 309 309 308 307 306 304 301 295 291 288 281 273 271 273 276 281 286 287
309 310 311 311 313 314 314 313 313 312 312 311 310 310 309 309 309 308 309 310 311 311 311 310 311 311 311 310 309 308 306 302 297 294 287 275 268 269 272 274 279 284
316 317 318 320 320 318 317 316 315 314 313 312 311 311 310 310 310 309 310 311 311 312 313 313 313 313 312 311 310 310 309 306 303 301 296 285 272 265 267 272 275 279
320 320 322 323 321 318 317 316 316 315 314 313 312 311 310 309 309 308 308 309 311 312 313 315 315 314 314 313 311 310 310 308 306 305 303 295 281 268 265 268 271 275
323 323 325 324 321 319 318 317 317 316 314 313 313 312 311 310 310 309 309 309 310 311 312 314 315 315 314 314 312 310 310 308 306 306 306 301 289 275 267 265 267 271
331 332 332 330 326 324 323 322 321 320 318 317 316 316 315 313 312 311 311 310 311 312 312 313 313 314 313 313 312 311 309 308 306 305 305 304 295 281 269 265 265 267
341 343 340 336 332 330 329 328 327 326 325 324 323 323 322 320 319 317 316 315 314 314 314 313 313 313 313 313 313 311 310 308 306 303 303 304 299 286 274 267 267 268
347 348 344 338 336 336 336 335 333 332 331 330 330 330 329 329 328 326 324 322 319 318 318 317 316 315 314 313 313 313 312 311 308 304 302 303 302 292 278 268 266 269
354 352 349 345 344 344 344 344 342 341 340 339 338 337 336 336 335 333 331 329 326 324 323 321 320 318 316 314 313 313 314 313 312 309 304 302 302 297 285 272 265 264
1 359 357 356 354 353 353 353 351 350 349 347 346 346 345 344 343 340 338 336 334 331 329 326 325 323 320 319 316 314 314 314 314 312 307 303 301 298 292 279 267 261